Regional Weather Roundup
Issued by NWS Kansas City/Pleasant Hill, MO

Home | Current Version | Previous Version | Graphics & Text | Print | Product List | Glossary Off
Versions: 1 2 3 4 5 6 7 8 9 10 11 12 13 14 15 16 17 18 19 20 21 22 23 24 25 26 27 28 29 30 31 32 33 34 35 36 37 38 39 40 41 42 43 44 45 46 47 48 49 50

000
ASUS43 KEAX 200010
RWREAX

WEATHER ROUNDUP FOR EASTERN KANSAS AND NORTHWEST MISSOURI
NATIONAL WEATHER SERVICE KANSAS CITY/PLEASANT HILL MO
700 PM CDT FRI SEP 19 2014

KSZ040-057-103>105-MOZ028-029-037-043-200100-
...KANSAS CITY METROPOLITAN AREA...

CITY           SKY/WX    TMP DP  RH WIND       PRES   REMARKS
K.C. INTL      PTCLDY    75  69  81 S9        29.93F
6HR MIN TEMP:  69; 6HR MAX TEMP:  78;

K.C. DOWNTOWN  CLEAR     79  67  66 S7        29.92F
6HR MIN TEMP:  70; 6HR MAX TEMP:  81;

LEES SUMMIT    CLEAR     76  68  76 S7        29.95F
6HR MIN TEMP:  70; 6HR MAX TEMP:  79;

OLATHE - IXD   PTCLDY    76  69  79 S8        29.95S
6HR MIN TEMP:  70; 6HR MAX TEMP:  80;

OLATHE - OJC   CLEAR     76  68  76 S8        29.94F
6HR MIN TEMP:  70; 6HR MAX TEMP:  79;

LAWRENCE       CLEAR     77  67  71 S9        29.93S

$$

MOZ001>008-011>017-020>025-030>033-038>040-044>046-053-054-200100-
...NORTHERN AND CENTRAL MISSOURI...

CITY           SKY/WX    TMP DP  RH WIND       PRES   REMARKS
ST. JOSEPH     CLEAR     76  69  79 S9        29.90F
6HR MIN TEMP:  70; 6HR MAX TEMP:  78;

MOSBY          CLEAR     73  68  83 SE5       29.93F
WHITEMAN AFB   CLEAR     73  66  79 S6        29.96F
6HR MIN TEMP:  73; 6HR MAX TEMP:  78;

CLINTON        CLEAR     75  70  83 CALM      29.98S
SEDALIA        CLEAR     74  65  73 S5        29.98F
6HR MIN TEMP:  74; 6HR MAX TEMP:  79;

WARSAW         NOT AVBL
MARSHALL       CLEAR     75  66  73 SE6       29.97F
CHILLICOTHE      N/A     75  66  73 S6        29.95F
6HR MIN TEMP:  73; 6HR MAX TEMP:  78;

MOBERLY        CLEAR     73  59  60 S6        29.99F
KIRKSVILLE     CLEAR     70  62  76 S9        29.97F
6HR MIN TEMP:  70; 6HR MAX TEMP:  77;


$$

MOZ041-047>049-056>058-063>065-088>090-097-200100-
...EASTERN AND SOUTHERN MISSOURI...

CITY           SKY/WX    TMP DP  RH WIND       PRES   REMARKS
ST. LOUIS INTL PTCLDY    77  57  50 S5        30.01S
6HR MIN TEMP:  75; 6HR MAX TEMP:  80;

SPIRIT OF STL  CLEAR     69  62  78 CALM      29.99F
COLUMBIA       CLEAR     71  63  75 S6        29.99F
JEFFERSON CITY CLEAR     75  62  64 SE3       29.98F
MEXICO         CLEAR     73  64  73 S3        29.99F
HANNIBAL       CLEAR     70  57  64 SE5       29.99F HAZE
ROLLA          HAZE      71  61  70 SE3       30.00S VSB 1/2
LEBANON        CLEAR     73  63  68 CALM      30.02S
OSAGE BEACH    CLEAR     75  63  64 S3        30.00S
SPRINGFIELD    CLEAR     74  64  71 S7        30.00F
BRANSON        CLEAR     75  66  73 E6        30.02S
NEVADA         CLEAR     73  66  78 CALM      29.98S
JOPLIN         CLEAR     77  68  73 SW6       29.98S
WEST PLAINS    CLEAR     75  63  66 CALM      30.03F

$$

IAZ060-094-KSZ022-034>040-054-083-096-NEZ052-066-093-200100-
...KANSAS...SOUTHEAST NEBRASKA AND IOWA...

CITY           SKY/WX    TMP DP  RH WIND       PRES   REMARKS
TOPEKA         CLEAR     79  69  71 S10G21    29.91F
6HR MIN TEMP:  73; 6HR MAX TEMP:  82;

MANHATTAN      CLEAR     81  69  67 S12G22    29.87S
EMPORIA        CLEAR     73  68  84 SE13      29.94F
CHANUTE        CLOUDY    74  69  85 S8        29.97F
WICHITA        CLEAR     84  64  50 SE16G23   29.91S
OMAHA          PTCLDY    83  69  62 S18       29.79R
LINCOLN        CLEAR     85  65  51 S14       29.80S
FALLS CITY     CLEAR     78  69  73 S17       29.85F
LAMONI         CLEAR     72  66  81 S14G20    29.91F
DES MOINES     PTCLDY    76  65  68 S14       29.85S

$$




USA.gov is the U.S. government's official web portal to all federal, state and local government web resources and services.